Regional Weather Roundup
Issued by NWS

Home | Current Version | Previous Version | Graphics & Text | Print | Product List | Glossary On
Versions: 1 2 3 4 5 6 7 8 9 10 11 12 13 14 15 16 17 18 19 20 21 22 23 24 25 26 27 28 29 30 31 32 33 34 35 36 37 38 39 40 41 42 43 44 45 46 47 48 49 50
000
ASUS43 KLOT 090108
RWRIL

ILLINOIS REGIONAL WEATHER ROUNDUP
NATIONAL WEATHER SERVICE CHICAGO/ROMEOVILLE IL
700 PM CST MON FEB 08 2016

NOTE: "FAIR" INDICATES FEW OR NO CLOUDS BELOW 12,000 FEET WITH NO
SIGNIFICANT WEATHER AND/OR OBSTRUCTIONS TO VISIBILITY.

* THESE STATIONS ARE NOT UNDER NWS QUALITY CONTROL. THEY ALSO MAY NOT
  REPORT WEATHER SUCH AS PRECIPITATION OR FOG.

ILZ001-002-007-009-015-016-024-090200-
NORTHWEST ILLINOIS

CITY           SKY/WX    TMP DP  RH WIND       PRES   REMARKS
MOLINE         FLURRIES  18  11  74 NW17G29   29.88S WCI   3
STERLING*      CLOUDY    21  12  68 W12       29.80S WCI   9
SAVANNA*       CLOUDY    21  12  68 NW14      29.85R WCI   8
$$

ILZ003-004-008-010-011-017-018-090200-
NORTH CENTRAL ILLINOIS

CITY           SKY/WX    TMP DP  RH WIND       PRES   REMARKS
ROCKFORD       CLOUDY    24  14  65 NW16      29.80S WCI  11
FREEPORT*      CLOUDY    21  13  71 NW16      29.81F WCI   7
ROCHELLE*      CLOUDY    23  16  74 NW12      29.79F WCI  12
DE KALB*       CLOUDY    24  18  78 NW15      29.77S WCI  11
$$

ILZ005-006-012>014-019>023-090200-
NORTHEAST ILLINOIS

CITY           SKY/WX    TMP DP  RH WIND       PRES   REMARKS
CHICAGO-OHARE  CLOUDY    26  19  74 W14       29.74R WCI  14
CHICAGO-MIDWAY FLURRIES  28  18  66 NW12      29.75R WCI  18
AURORA         CLOUDY    26  18  71 W18       29.77S WCI  13
LANSING*       CLOUDY    27  21  77 W14       29.75S WCI  16
WAUKEGAN       LGT SNOW  24  20  84 W13       29.72S FOG     WCI  12
DUPAGE AIRPORT CLOUDY    25  17  72 NW12      29.75R WCI  14
KANKAKEE*      CLOUDY    26  19  74 W10G16    29.79S WCI  15
WHEELING       FLURRIES  26  20  77 NW14      29.75S WCI  14
MORRIS*        CLOUDY    25  18  74 NW17G25   29.76F WCI  12
ROMEOVILLE*    CLOUDY    26  19  75 NW16      29.77R WCI  13
NORTHERLY ISL    N/A     28  20  71 W12         N/A  WCI  18
$$

LMZ740>746-090200-
SOUTHERN LAKE MICHIGAN

STATION/POSITION SKY/WX   TEMP    WIND        PRES    VSBY  WAVE
                          AIR SEA DIR/SP/G                  HT/PER
                          (F)     (DEG/KT/KT) (MB)    (MI)  (FT/S)
HARRISON CRIB              28     300/ 18/ 20   N/A
BURNHAM HARBOR             28     280/  8/ 16   N/A
CALUMET HARBOR             28     270/  9/ 12 1006.5R
BURNS HARBOR               29     270/ 12/ 15 1007.5R
MICHIGAN CITY              28     240/ 18/ 18   N/A
$$

ILZ025>027-034>036-040-047-049-050-058-095>099-090200-
WEST-CENTRAL ILLINOIS

CITY           SKY/WX    TMP DP  RH WIND       PRES   REMARKS
QUINCY         MIX PCPN  19  11  70 NW23G33   29.95S WCI   2
GALESBURG*     CLOUDY    18  12  79 W21G26    29.88S WCI   1
MACOMB*        CLOUDY    19  13  77 NW22G29   29.94S WCI   2
JACKSONVILLE*  FLURRIES  22  14  70 NW17G29   29.92S WCI   8
PITTSFIELD*    FLURRIES  20  13  73 NW15G22   29.95S WCI   7
$$

ILZ028>032-037-038-041>044-048-051>054-059>061-090200-
CENTRAL ILLINOIS

CITY           SKY/WX    TMP DP  RH WIND       PRES   REMARKS
PONTIAC        CLOUDY    24  20  85 W17       29.82F WCI  10
BLOOMINGTON    LGT SNOW  20  16  84 W18       29.84S FOG     WCI   5
DECATUR        FLURRIES  20  13  74 W18G26    29.87R WCI   5
PEORIA         CLOUDY    20  12  71 NW9       29.87S WCI   9
LACON*         CLOUDY    20  13  73 W10G16    29.85S WCI   9
LINCOLN*       LGT SNOW  21  15  80 W7G17     29.89S WCI  12
SPRINGFIELD    LGT SNOW  20  16  84 W12G21    29.91S FOG     WCI   8
TAYLORVILLE    FLURRIES  21  14  73 W16G23    29.90F WCI   7
$$

ILZ033-039-045-046-055>057-062-063-090200-
EAST-CENTRAL ILLINOIS

CITY           SKY/WX    TMP DP  RH WIND       PRES   REMARKS
CHAMPAIGN      FLURRIES  21  16  81 W17       29.84R WCI   7
RANTOUL*       FLURRIES  23  19  81 W16       29.82S WCI  10
MATTOON        FLURRIES  20  14  77 W22       29.86R WCI   3
PARIS*         FLURRIES  21  18  86 W18G24    29.85R WCI   6
$$

ILZ079-100>102-090200-
SOUTHWEST ILLINOIS

CITY           SKY/WX    TMP DP  RH WIND       PRES   REMARKS
ALTON          FLURRIES  21  16  79 NW17      29.95S WCI   7
CAHOKIA*       FLURRIES  25  17  72 NW18      29.96S WCI  11
SPARTA*        FLURRIES  24  19  82 NW10      29.96S WCI  13
$$

ILZ064>066-069>071-074>076-080>082-084>086-088>090-092>094-090200-
SOUTH-CENTRAL ILLINOIS

CITY           SKY/WX    TMP DP  RH WIND       PRES   REMARKS
CARBONDALE     CLOUDY    25  18  74 NW8       29.96R WCI  16
CAIRO*         CLOUDY    30  21  68 NW16G24   29.97R WCI  19
EFFINGHAM*     LGT SNOW  22  18  85 W14       29.91S WCI   9
MARION         FLURRIES  27  19  74 NW6       29.96S WCI  20
MT. VERNON     CLOUDY    23  12  63 NW5G22    29.93S WCI  17
CENTRALIA*     FLURRIES  24  18  78 NW16G22   29.92S WCI  10
SALEM*         FLURRIES  24  16  71 NW14      29.92S WCI  12
METROPOLIS*    LGT RAIN  29  20  71 NW7       29.96R WCI  22
$$

ILZ067-068-072-073-078-083-087-091-090200-
SOUTHEAST ILLINOIS

CITY           SKY/WX    TMP DP  RH WIND       PRES   REMARKS
LAWRENCEVILLE  LGT SNOW  22  17  81 W15       29.90R WCI   9
FLORA*         FLURRIES  23  18  78 W14G23    29.92S WCI  11
FAIRFIELD*     CLOUDY    23  17  75 NW9       29.92R WCI  13
HARRISBURG*    CLOUDY    25  20  79 NW16G25   29.95R WCI  13
ROBINSON*      FLURRIES  20  17  88 W10       29.89S WCI   8
CARMI*         CLOUDY    24  20  83 NW16      29.92S WCI  11
$$

ABBREVIATIONS USED IN REMARKS
   TC - TEMPERATURE IN CELSIUS
  WCI - WIND CHILL INDEX
   HX - HEAT INDEX
  VSB - VISIBILITY
$$




USA.gov is the U.S. government's official web portal to all federal, state and local government web resources and services.